International Falls, MN

9:47 AM CST on December 13, 2017 (GMT -0600)
Falls International

Weather History for KINL - July, 2013

Change the Weather History Date:

Tuesday, July 9, 2013

  Actual Average Record
Temperature  
Mean Temperature 66 °F 65 °F  
Max Temperature 72 °F 78 °F 95 °F (1921)
Min Temperature 59 °F 53 °F 40 °F (1922)
Degree Days  
Heating Degree Days 0 2  
Month to date heating degree days 0 25  
Since 1 June heating degree days 169 189  
Since 1 July heating degree days 0 25  
Cooling Degree Days 1 2  
Month to date cooling degree days 30 18  
Year to date cooling degree days 67 65  
Since 1 June cooling degree days 64 56  
Growing Degree Days 16 (Base 50)    
Moisture  
Dew Point 62 °F    
Average Humidity 83    
Maximum Humidity 97    
Minimum Humidity 68    
Precipitation  
Precipitation 0.30 in 0.14 in 1.14 in (2011)
Month to date precipitation 1.62 1.30  
Year to date precipitation 15.60 11.75  
Snow  
Snow 0.00 in 0.00 in 0.00 in (2002)
Month to date snowfall 0.0 0.0  
Since 1 June snowfall 0.0 0.0  
Since 1 July snowfall 0.0 0.0  
Snow Depth 0.00 in    
Sea Level Pressure  
Sea Level Pressure 29.85 in    
Wind  
Wind Speed 6 mph (NW)    
Max Wind Speed 22 mph    
Max Gust Speed 29 mph    
Visibility 9 miles    
Events Rain    
T = Trace of Precipitation, MM = Missing Value Source: NWS Daily Summary

Daily Weather History Graph

Daily Weather History Graph

Search for Another Location

Airport or City:

Trip Planner

Search our weather history database for the weather conditions in past years. The results will help you decide how hot, cold, wet, or windy it might be!

Date:

Astronomy

Jul. 09, 2013 Rise Set
Actual Time 5:21 AM CDT 9:15 PM CDT
Civil Twilight 4:40 AM CDT 9:56 PM CDT
Nautical Twilight 3:44 AM CDT 10:52 PM CDT
Astronomical Twilight 2:15 AM CDT 12:19 AM CDT
Moon 6:58 AM CDT (7/9) 9:38 PM CDT (7/9)
Length of Visible Light 17h 15m
Length of Day
15h 53m
New Moon, 2% of the Moon is Illuminated
Jul 9
New Moon
Jul 15
First Quarter
Jul 22
Full
Jul 29
Last Quarter
Aug 6
New

Hourly Weather History & Observations

Time (CDT) Temp. Dew Point Humidity Pressure Visibility Wind Dir Wind Speed Gust Speed Precip Events Conditions
12:55 AM 60.1 °F 59.0 °F 96% 29.93 in 10.0 mi Calm Calm - N/A   Clear
1:55 AM 62.1 °F 60.1 °F 93% 29.91 in 10.0 mi Calm Calm - N/A   Clear
2:55 AM 62.1 °F 60.1 °F 93% 29.89 in 10.0 mi Calm Calm - N/A   Clear
3:55 AM 62.1 °F 59.0 °F 90% 29.88 in 10.0 mi Calm Calm - N/A   Clear
4:55 AM 61.0 °F 59.0 °F 93% 29.87 in 10.0 mi Calm Calm - N/A   Clear
5:55 AM 63.0 °F 61.0 °F 93% 29.85 in 10.0 mi SE 3.5 mph - N/A   Clear
6:55 AM 66.9 °F 64.9 °F 93% 29.84 in 10.0 mi Calm Calm - N/A   Scattered Clouds
7:55 AM 71.1 °F 66.0 °F 84% 29.82 in 10.0 mi Variable 4.6 mph - N/A   Clear
8:55 AM 71.1 °F 66.0 °F 84% 29.82 in 10.0 mi Variable 4.6 mph - N/A   Overcast
9:55 AM 70.0 °F 64.9 °F 84% 29.82 in 10.0 mi Variable 3.5 mph - 0.00 in Rain Light Rain
10:55 AM 70.0 °F 66.9 °F 90% 29.83 in 10.0 mi West 4.6 mph - 0.03 in   Overcast
11:05 AM 69.8 °F 66.2 °F 88% 29.84 in 10.0 mi West 4.6 mph - N/A   Overcast
11:38 AM 69.8 °F 66.2 °F 88% 29.84 in 5.0 mi NNW 10.4 mph - 0.01 in Rain Rain
11:55 AM 66.9 °F 64.0 °F 90% 29.85 in 4.0 mi NNW 9.2 mph - 0.05 in Rain Rain
12:02 PM 66.2 °F 64.4 °F 94% 29.84 in 4.0 mi NNW 9.2 mph - 0.01 in Rain Heavy Rain
12:18 PM 66.2 °F 64.4 °F 94% 29.85 in 1.8 mi NW 6.9 mph - 0.08 in Rain Heavy Rain
12:30 PM 66.2 °F 64.4 °F 94% 29.84 in 3.0 mi NNW 9.2 mph - 0.15 in Rain Rain
12:55 PM 66.0 °F 64.0 °F 93% 29.83 in 5.0 mi North 6.9 mph - 0.20 in Rain Rain
1:55 PM 69.1 °F 64.0 °F 84% 29.82 in 10.0 mi North 3.5 mph - 0.01 in Rain Light Rain
2:06 PM 69.8 °F 64.4 °F 83% 29.82 in 9.0 mi North 5.8 mph - 0.00 in Rain Light Rain
2:19 PM 69.8 °F 64.4 °F 83% 29.82 in 10.0 mi NNW 4.6 mph - 0.01 in Rain Light Rain
2:38 PM 68.0 °F 64.4 °F 88% 29.81 in 10.0 mi West 3.5 mph - 0.01 in   Overcast
2:55 PM 69.1 °F 64.9 °F 87% 29.81 in 10.0 mi West 6.9 mph - 0.01 in   Overcast
3:34 PM 69.8 °F 64.4 °F 83% 29.81 in 10.0 mi NW 8.1 mph - N/A   Overcast
3:55 PM 68.0 °F 64.0 °F 87% 29.81 in 10.0 mi WNW 8.1 mph - N/A   Overcast
4:02 PM 68.0 °F 62.6 °F 83% 29.81 in 10.0 mi NW 9.2 mph - N/A   Overcast
4:09 PM 68.0 °F 62.6 °F 83% 29.81 in 10.0 mi NW 9.2 mph - N/A   Overcast
4:21 PM 68.0 °F 62.6 °F 83% 29.82 in 4.0 mi NW 15.0 mph 23.0 mph 0.00 in Rain Light Rain
4:42 PM 71.6 °F 66.2 °F 83% 29.82 in 10.0 mi NNW 12.7 mph - 0.00 in   Overcast
4:55 PM 68.0 °F 63.0 °F 84% 29.83 in 10.0 mi NW 13.8 mph 26.5 mph 0.00 in   Overcast
5:55 PM 66.9 °F 59.0 °F 76% 29.84 in 10.0 mi NW 19.6 mph 24.2 mph N/A   Mostly Cloudy
6:05 PM 68.0 °F 59.0 °F 73% 29.84 in 10.0 mi NNW 16.1 mph - N/A   Mostly Cloudy
6:25 PM 68.0 °F 57.2 °F 68% 29.83 in 10.0 mi NNW 15.0 mph - N/A   Scattered Clouds
6:55 PM 66.0 °F 55.9 °F 70% 29.85 in 10.0 mi NW 13.8 mph - N/A   Partly Cloudy
7:55 PM 66.9 °F 55.9 °F 68% 29.86 in 10.0 mi WNW 8.1 mph - N/A   Mostly Cloudy
8:55 PM 62.1 °F 54.0 °F 75% 29.88 in 10.0 mi WNW 5.8 mph - N/A   Mostly Cloudy
9:55 PM 61.0 °F 55.0 °F 81% 29.89 in 10.0 mi West 9.2 mph - N/A   Overcast
10:55 PM 60.1 °F 54.0 °F 80% 29.90 in 10.0 mi West 8.1 mph - N/A   Scattered Clouds
11:55 PM 60.1 °F 54.0 °F 80% 29.91 in 10.0 mi West 5.8 mph - N/A   Overcast